| time (UTC) | temp C | wind direction | speed KPH | gust KPH | rain 1hr cm | rain 24hr cm | rain mn cm | humidity % | barometer mb |
| 20260510214224 | 26 | 254 | 1.6 | 1.6 | 0.00 | 0.00 | 0.00 | 65 | 1021.5 |
| 20260510213721 | 26 | 30 | 0.0 | 0.0 | 0.00 | 0.00 | 0.00 | 68 | 1021.4 |
| 20260510213217 | 25 | 103 | 3.2 | 3.2 | 0.00 | 0.00 | 0.00 | 68 | 1021.7 |
| 20260510212714 | 26 | 296 | 3.2 | 3.2 | 0.00 | 0.00 | 0.00 | 67 | 1021.7 |
| 20260510212211 | 25 | 315 | 0.0 | 1.6 | 0.00 | 0.00 | 0.00 | 69 | 1021.5 |
| 20260510211708 | 25 | 135 | 0.0 | 1.6 | 0.00 | 0.00 | 0.00 | 68 | 1021.7 |
| 20260510211203 | 26 | 342 | 1.6 | 3.2 | 0.00 | 0.00 | 0.00 | 69 | 1021.6 |
| 20260510210659 | 25 | 109 | 1.6 | 1.6 | 0.00 | 0.00 | 0.00 | 69 | 1021.6 |
| 20260510210155 | 26 | 112 | 4.8 | 4.8 | 0.00 | 0.00 | 0.00 | 68 | 1021.6 |
| 20260510205654 | 26 | 244 | 0.0 | 0.0 | 0.00 | 0.00 | 0.00 | 71 | 1021.5 |
| 20260510205150 | 25 | 268 | 1.6 | 1.6 | 0.00 | 0.00 | 0.00 | 69 | 1021.5 |
| 20260510204646 | 25 | 266 | 1.6 | 1.6 | 0.00 | 0.00 | 0.00 | 69 | 1021.6 |
| 20260510204143 | 25 | 273 | 1.6 | 1.6 | 0.00 | 0.00 | 0.00 | 69 | 1021.6 |
| 20260510203640 | 25 | 5 | 1.6 | 3.2 | 0.00 | 0.00 | 0.00 | 71 | 1021.7 |
| 20260510203137 | 25 | 267 | 4.8 | 4.8 | 0.00 | 0.00 | 0.00 | 72 | 1021.5 |
| 20260510202637 | 25 | 285 | 4.8 | 4.8 | 0.00 | 0.00 | 0.00 | 71 | 1021.8 |
| 20260510202132 | 25 | 302 | 3.2 | 3.2 | 0.00 | 0.00 | 0.00 | 70 | 1022.0 |
| 20260510201630 | 25 | 254 | 3.2 | 3.2 | 0.00 | 0.00 | 0.00 | 70 | 1021.9 |
| 20260510201126 | 25 | 302 | 1.6 | 1.6 | 0.00 | 0.00 | 0.00 | 72 | 1021.6 |
| 20260510200622 | 24 | 176 | 1.6 | 1.6 | 0.00 | 0.00 | 0.00 | 72 | 1021.7 |
| 20260510200120 | 24 | 151 | 4.8 | 4.8 | 0.00 | 0.00 | 0.00 | 72 | 1021.8 |
| 20260510195618 | 25 | 278 | 3.2 | 3.2 | 0.00 | 0.00 | 0.00 | 71 | 1022.0 |
| 20260510195108 | 25 | 319 | 1.6 | 1.6 | 0.00 | 0.00 | 0.00 | 72 | 1021.8 |
| 20260510194608 | 25 | 170 | 1.6 | 3.2 | 0.00 | 0.00 | 0.00 | 73 | 1022.0 |
| 20260510194105 | 24 | 280 | 1.6 | 1.6 | 0.00 | 0.00 | 0.00 | 74 | 1021.8 |
| 20260510193604 | 25 | 262 | 3.2 | 3.2 | 0.00 | 0.00 | 0.00 | 72 | 1022.0 |
| 20260510193101 | 24 | 202 | 3.2 | 3.2 | 0.00 | 0.00 | 0.00 | 73 | 1022.0 |
| 20260510192555 | 23 | 290 | 1.6 | 1.6 | 0.00 | 0.00 | 0.00 | 74 | 1022.0 |
| 20260510192051 | 23 | 277 | 6.4 | 9.7 | 0.00 | 0.00 | 0.00 | 74 | 1022.1 |
| 20260510191548 | 23 | 324 | 4.8 | 4.8 | 0.00 | 0.00 | 0.00 | 76 | 1022.3 |
| 20260510191045 | 24 | 158 | 3.2 | 3.2 | 0.00 | 0.00 | 0.00 | 71 | 1022.2 |
| 20260510190542 | 23 | 263 | 3.2 | 3.2 | 0.00 | 0.00 | 0.00 | 74 | 1022.1 |
| 20260510190040 | 23 | 253 | 0.0 | 0.0 | 0.00 | 0.00 | 0.00 | 73 | 1022.0 |
| 20260510185536 | 23 | 257 | 1.6 | 1.6 | 0.00 | 0.00 | 0.00 | 74 | 1022.3 |
| 20260510185034 | 23 | 251 | 1.6 | 1.6 | 0.00 | 0.00 | 0.00 | 75 | 1022.4 |
| 20260510184531 | 23 | 291 | 0.0 | 0.0 | 0.00 | 0.00 | 0.00 | 75 | 1022.2 |
| 20260510184026 | 23 | 284 | 1.6 | 1.6 | 0.00 | 0.00 | 0.00 | 76 | 1022.7 |
| 20260510183522 | 23 | 290 | 1.6 | 3.2 | 0.00 | 0.00 | 0.00 | 77 | 1022.6 |
| 20260510183017 | 23 | 27 | 1.6 | 1.6 | 0.00 | 0.00 | 0.00 | 77 | 1022.6 |
| 20260510182514 | 23 | 176 | 1.6 | 1.6 | 0.00 | 0.00 | 0.00 | 80 | 1022.6 |
| 20260510182009 | 23 | 47 | 1.6 | 1.6 | 0.00 | 0.00 | 0.00 | 80 | 1022.7 |
| 20260510181508 | 22 | 50 | 0.0 | 0.0 | 0.00 | 0.00 | 0.00 | 83 | 1022.6 |
| 20260510181003 | 22 | 294 | 1.6 | 3.2 | 0.00 | 0.00 | 0.00 | 83 | 1022.8 |
| 20260510180500 | 22 | 304 | 0.0 | 1.6 | 0.00 | 0.00 | 0.00 | 83 | 1022.8 |
| 20260510175957 | 22 | 304 | 0.0 | 1.6 | 0.00 | 0.00 | 0.00 | 86 | 1022.9 |
| 20260510175453 | 21 | 113 | 6.4 | 8.0 | 0.00 | 0.00 | 0.00 | 85 | 1022.9 |
| 20260510174948 | 21 | 312 | 0.0 | 1.6 | 0.00 | 0.00 | 0.00 | 86 | 1022.8 |
| 20260510174447 | 21 | 290 | 0.0 | 0.0 | 0.00 | 0.00 | 0.00 | 87 | 1023.0 |
| 20260510173944 | 21 | 323 | 0.0 | 0.0 | 0.00 | 0.00 | 0.00 | 87 | 1023.1 |
| 20260510173439 | 21 | 138 | 0.0 | 0.0 | 0.00 | 0.00 | 0.00 | 88 | 1023.2 |
| 20260510172936 | 21 | 328 | 0.0 | 0.0 | 0.00 | 0.00 | 0.00 | 90 | 1023.3 |
| 20260510172432 | 20 | 328 | 0.0 | 0.0 | 0.00 | 0.00 | 0.00 | 89 | 1023.4 |
| 20260510171928 | 20 | 329 | 1.6 | 1.6 | 0.00 | 0.00 | 0.00 | 88 | 1023.3 |
| 20260510171425 | 20 | 328 | 0.0 | 0.0 | 0.00 | 0.00 | 0.00 | 89 | 1023.2 |
| 20260510170922 | 20 | 328 | 0.0 | 1.6 | 0.00 | 0.00 | 0.00 | 88 | 1023.3 |
| 20260510170419 | 20 | 329 | 0.0 | 0.0 | 0.00 | 0.00 | 0.00 | 88 | 1023.3 |
| 20260510165914 | 20 | 59 | 0.0 | 1.6 | 0.00 | 0.00 | 0.00 | 89 | 1023.6 |
| 20260510165411 | 20 | 58 | 0.0 | 0.0 | 0.00 | 0.00 | 0.00 | 88 | 1023.5 |
| 20260510164908 | 20 | 59 | 1.6 | 1.6 | 0.00 | 0.00 | 0.00 | 88 | 1023.5 |
| 20260510164405 | 20 | 325 | 0.0 | 0.0 | 0.00 | 0.00 | 0.00 | 90 | 1023.5 |
| 20260510163905 | 20 | 283 | 1.6 | 3.2 | 0.00 | 0.00 | 0.00 | 89 | 1023.5 |
| 20260510163401 | 21 | 270 | 1.6 | 3.2 | 0.00 | 0.00 | 0.00 | 88 | 1023.4 |
| 20260510162855 | 20 | 265 | 0.0 | 0.0 | 0.00 | 0.00 | 0.00 | 89 | 1023.4 |
| 20260510162354 | 20 | 265 | 1.6 | 1.6 | 0.00 | 0.00 | 0.00 | 90 | 1023.3 |
| 20260510161849 | 20 | 233 | 0.0 | 1.6 | 0.00 | 0.00 | 0.00 | 89 | 1023.3 |
| 20260510161345 | 20 | 256 | 0.0 | 1.6 | 0.00 | 0.00 | 0.00 | 89 | 1023.4 |
| 20260510160842 | 20 | 249 | 0.0 | 0.0 | 0.00 | 0.00 | 0.00 | 90 | 1023.6 |
| 20260510160339 | 20 | 241 | 0.0 | 0.0 | 0.00 | 0.00 | 0.00 | 89 | 1023.4 |
| 20260510155838 | 20 | 266 | 0.0 | 0.0 | 0.00 | 0.00 | 0.00 | 90 | 1023.3 |
| 20260510155336 | 20 | 266 | 0.0 | 0.0 | 0.00 | 0.00 | 0.00 | 90 | 1023.3 |
| 20260510154831 | 20 | 266 | 0.0 | 0.0 | 0.00 | 0.00 | 0.00 | 89 | 1023.4 |
| 20260510154327 | 20 | 240 | 0.0 | 0.0 | 0.00 | 0.00 | 0.00 | 91 | 1023.3 |
| 20260510153821 | 20 | 216 | 0.0 | 1.6 | 0.00 | 0.00 | 0.00 | 92 | 1023.6 |
| 20260510153312 | 20 | 213 | 1.6 | 1.6 | 0.00 | 0.00 | 0.00 | 92 | 1023.3 |
| 20260510152809 | 19 | 228 | 0.0 | 0.0 | 0.00 | 0.00 | 0.00 | 92 | 1023.4 |
| 20260510152307 | 19 | 157 | 3.2 | 3.2 | 0.00 | 0.00 | 0.00 | 92 | 1023.3 |
| 20260510151802 | 19 | 160 | 1.6 | 1.6 | 0.00 | 0.00 | 0.00 | 92 | 1023.4 |
| 20260510151301 | 19 | 158 | 1.6 | 3.2 | 0.00 | 0.00 | 0.00 | 94 | 1023.3 |
| 20260510150756 | 18 | 157 | 1.6 | 1.6 | 0.00 | 0.00 | 0.00 | 93 | 1023.6 |
| 20260510150252 | 19 | 196 | 4.8 | 4.8 | 0.00 | 0.00 | 0.00 | 94 | 1023.3 |
| 20260510145748 | 19 | 270 | 0.0 | 0.0 | 0.00 | 0.00 | 0.00 | 94 | 1023.3 |
| 20260510145245 | 19 | 276 | 0.0 | 1.6 | 0.00 | 0.00 | 0.00 | 93 | 1023.4 |
| 20260510144741 | 19 | 276 | 0.0 | 0.0 | 0.00 | 0.00 | 0.00 | 94 | 1023.4 |
| 20260510144238 | 18 | 277 | 0.0 | 0.0 | 0.00 | 0.00 | 0.00 | 94 | 1023.5 |
| 20260510143737 | 18 | 204 | 1.6 | 1.6 | 0.00 | 0.00 | 0.00 | 94 | 1023.5 |
| 20260510143234 | 18 | 284 | 0.0 | 0.0 | 0.00 | 0.00 | 0.00 | 94 | 1023.4 |
| 20260510142731 | 18 | 267 | 0.0 | 0.0 | 0.00 | 0.00 | 0.00 | 96 | 1023.4 |
| 20260510142228 | 18 | 324 | 0.0 | 1.6 | 0.00 | 0.00 | 0.00 | 95 | 1023.2 |
| 20260510141725 | 18 | 319 | 0.0 | 0.0 | 0.00 | 0.00 | 0.00 | 96 | 1023.4 |
| 20260510141223 | 18 | 319 | 0.0 | 0.0 | 0.00 | 0.00 | 0.00 | 96 | 1023.2 |
| 20260510140719 | 18 | 240 | 0.0 | 0.0 | 0.00 | 0.00 | 0.00 | 97 | 1023.1 |
| 20260510140214 | 18 | 198 | 3.2 | 3.2 | 0.00 | 0.00 | 0.00 | 96 | 1023.3 |
| 20260510135709 | 18 | 259 | 0.0 | 0.0 | 0.00 | 0.00 | 0.00 | 97 | 1023.2 |
| 20260510135205 | 18 | 257 | 0.0 | 0.0 | 0.00 | 0.00 | 0.00 | 97 | 1023.0 |
| 20260510134702 | 18 | 258 | 0.0 | 0.0 | 0.00 | 0.00 | 0.00 | 98 | 1023.0 |
| 20260510134159 | 18 | 242 | 0.0 | 0.0 | 0.00 | 0.00 | 0.00 | 98 | 1023.2 |
| 20260510133655 | 18 | 257 | 0.0 | 0.0 | 0.00 | 0.00 | 0.00 | 98 | 1023.1 |
| 20260510133151 | 18 | 263 | 0.0 | 0.0 | 0.00 | 0.00 | 0.00 | 98 | 1023.1 |
| 20260510132647 | 18 | 259 | 0.0 | 0.0 | 0.00 | 0.00 | 0.00 | 98 | 1023.0 |
| 20260510132144 | 17 | 254 | 0.0 | 0.0 | 0.00 | 0.00 | 0.00 | 99 | 1022.8 |
| 20260510131642 | 17 | 241 | 0.0 | 0.0 | 0.00 | 0.00 | 0.00 | 99 | 1023.1 |
| 20260510131139 | 17 | 125 | 0.0 | 1.6 | 0.00 | 0.00 | 0.00 | 99 | 1022.8 |
| 20260510130636 | 17 | 71 | 0.0 | 0.0 | 0.00 | 0.00 | 0.00 | 99 | 1023.0 |
| 20260510130133 | 17 | 74 | 0.0 | 0.0 | 0.00 | 0.00 | 0.00 | 99 | 1022.9 |
| 20260510125629 | 17 | 75 | 0.0 | 0.0 | 0.00 | 0.00 | 0.00 | 99 | 1022.8 |
| 20260510125126 | 17 | 77 | 0.0 | 0.0 | 0.00 | 0.00 | 0.00 | 99 | 1023.0 |
| 20260510124623 | 17 | 78 | 0.0 | 0.0 | 0.00 | 0.00 | 0.00 | 99 | 1022.8 |
| 20260510124119 | 17 | 79 | 0.0 | 0.0 | 0.00 | 0.00 | 0.00 | 99 | 1022.8 |
| 20260510123615 | 17 | 78 | 0.0 | 0.0 | 0.00 | 0.00 | 0.00 | 99 | 1022.8 |
| 20260510123111 | 17 | 79 | 0.0 | 0.0 | 0.00 | 0.00 | 0.00 | 99 | 1022.4 |
| 20260510122607 | 17 | 79 | 0.0 | 0.0 | 0.00 | 0.00 | 0.00 | 99 | 1022.5 |
| 20260510122103 | 17 | 73 | 0.0 | 0.0 | 0.00 | 0.00 | 0.00 | 99 | 1022.3 |
| 20260510121600 | 17 | 73 | 0.0 | 0.0 | 0.00 | 0.00 | 0.00 | 99 | 1022.3 |
| 20260510121057 | 17 | 73 | 0.0 | 0.0 | 0.00 | 0.00 | 0.00 | 99 | 1022.2 |
| 20260510120555 | 17 | 74 | 0.0 | 0.0 | 0.00 | 0.00 | 0.00 | 99 | 1022.2 |
| 20260510120050 | 17 | 98 | 0.0 | 1.6 | 0.00 | 0.00 | 0.00 | 99 | 1022.3 |
| 20260510115547 | 17 | 99 | 0.0 | 0.0 | 0.00 | 0.00 | 0.00 | 99 | 1022.2 |
| 20260510115044 | 17 | 251 | 0.0 | 0.0 | 0.00 | 0.00 | 0.00 | 99 | 1021.9 |
| 20260510114540 | 17 | 251 | 0.0 | 0.0 | 0.00 | 0.00 | 0.00 | 99 | 1022.1 |
| 20260510114036 | 17 | 251 | 0.0 | 0.0 | 0.00 | 0.00 | 0.00 | 99 | 1021.8 |
| 20260510113531 | 17 | 250 | 1.6 | 1.6 | 0.00 | 0.00 | 0.00 | 99 | 1021.5 |
| 20260510113030 | 17 | 258 | 0.0 | 0.0 | 0.00 | 0.00 | 0.00 | 99 | 1021.5 |
| 20260510112526 | 17 | 261 | 0.0 | 0.0 | 0.00 | 0.00 | 0.00 | 99 | 1021.5 |
| 20260510112022 | 17 | 261 | 0.0 | 0.0 | 0.00 | 0.00 | 0.00 | 99 | 1021.3 |
| 20260510111519 | 17 | 261 | 0.0 | 0.0 | 0.00 | 0.00 | 0.00 | 99 | 1021.3 |
| 20260510111015 | 17 | 261 | 0.0 | 0.0 | 0.00 | 0.00 | 0.00 | 99 | 1021.1 |
| 20260510110511 | 17 | 261 | 0.0 | 0.0 | 0.00 | 0.00 | 0.00 | 99 | 1021.1 |
| 20260510110008 | 17 | 261 | 0.0 | 0.0 | 0.00 | 0.00 | 0.00 | 99 | 1020.8 |
| 20260510105502 | 17 | 261 | 0.0 | 0.0 | 0.00 | 0.00 | 0.00 | 99 | 1020.8 |
| 20260510104958 | 17 | 261 | 0.0 | 0.0 | 0.00 | 0.00 | 0.00 | 99 | 1020.7 |
| 20260510104455 | 17 | 261 | 0.0 | 0.0 | 0.00 | 0.00 | 0.00 | 99 | 1020.6 |
| 20260510103951 | 17 | 260 | 0.0 | 0.0 | 0.00 | 0.00 | 0.00 | 99 | 1020.3 |
| 20260510103449 | 17 | 255 | 0.0 | 0.0 | 0.00 | 0.00 | 0.00 | 99 | 1020.6 |
| 20260510102944 | 17 | 256 | 0.0 | 0.0 | 0.00 | 0.00 | 0.00 | 99 | 1020.5 |
| 20260510102440 | 17 | 256 | 0.0 | 0.0 | 0.00 | 0.00 | 0.00 | 99 | 1020.3 |
| 20260510101937 | 17 | 255 | 0.0 | 0.0 | 0.00 | 0.00 | 0.00 | 99 | 1020.2 |
| 20260510101435 | 17 | 262 | 0.0 | 0.0 | 0.00 | 0.00 | 0.00 | 99 | 1020.2 |
| 20260510100933 | 17 | 262 | 0.0 | 0.0 | 0.00 | 0.00 | 0.00 | 99 | 1020.1 |
| 20260510100429 | 17 | 263 | 0.0 | 0.0 | 0.00 | 0.00 | 0.00 | 99 | 1020.2 |
| 20260510095925 | 17 | 265 | 0.0 | 0.0 | 0.00 | 0.00 | 0.00 | 99 | 1020.1 |
| 20260510095421 | 17 | 265 | 0.0 | 0.0 | 0.00 | 0.00 | 0.00 | 99 | 1019.9 |
| 20260510094920 | 17 | 265 | 0.0 | 0.0 | 0.00 | 0.00 | 0.00 | 99 | 1020.0 |
| 20260510094415 | 17 | 265 | 0.0 | 0.0 | 0.00 | 0.00 | 0.00 | 99 | 1020.0 |
| 20260510093911 | 17 | 265 | 0.0 | 0.0 | 0.00 | 0.00 | 0.00 | 99 | 1020.0 |
| 20260510093407 | 17 | 265 | 0.0 | 0.0 | 0.00 | 0.00 | 0.00 | 99 | 1019.8 |
| 20260510092903 | 17 | 265 | 0.0 | 0.0 | 0.00 | 0.00 | 0.00 | 99 | 1019.8 |
| 20260510092401 | 17 | 265 | 0.0 | 0.0 | 0.00 | 0.00 | 0.00 | 99 | 1019.6 |
| 20260510091855 | 17 | 265 | 0.0 | 0.0 | 0.00 | 0.00 | 0.00 | 99 | 1019.4 |
| 20260510091353 | 17 | 265 | 0.0 | 0.0 | 0.00 | 0.00 | 0.00 | 99 | 1019.7 |
| 20260510090849 | 17 | 265 | 0.0 | 0.0 | 0.00 | 0.00 | 0.00 | 99 | 1019.5 |
| 20260510090346 | 17 | 265 | 0.0 | 0.0 | 0.00 | 0.00 | 0.00 | 99 | 1019.1 |
| 20260510085841 | 17 | 264 | 0.0 | 0.0 | 0.00 | 0.00 | 0.00 | 99 | 1019.4 |
| 20260510085336 | 17 | 267 | 0.0 | 0.0 | 0.00 | 0.00 | 0.00 | 99 | 1019.3 |
| 20260510084832 | 17 | 267 | 0.0 | 0.0 | 0.00 | 0.00 | 0.00 | 99 | 1019.1 |
| 20260510084329 | 17 | 267 | 0.0 | 0.0 | 0.00 | 0.00 | 0.00 | 99 | 1019.2 |
| 20260510083826 | 17 | 268 | 0.0 | 0.0 | 0.00 | 0.00 | 0.00 | 99 | 1019.1 |
| 20260510083323 | 17 | 267 | 0.0 | 0.0 | 0.00 | 0.00 | 0.00 | 99 | 1019.4 |
| 20260510082818 | 17 | 267 | 0.0 | 0.0 | 0.00 | 0.00 | 0.00 | 99 | 1019.0 |
| 20260510082316 | 17 | 267 | 0.0 | 0.0 | 0.00 | 0.00 | 0.00 | 99 | 1018.9 |
| 20260510081814 | 17 | 266 | 0.0 | 0.0 | 0.00 | 0.00 | 0.00 | 99 | 1019.3 |
| 20260510081311 | 17 | 274 | 0.0 | 0.0 | 0.00 | 0.00 | 0.00 | 99 | 1019.3 |
| 20260510080807 | 17 | 274 | 0.0 | 0.0 | 0.00 | 0.00 | 0.00 | 99 | 1018.9 |
| 20260510080301 | 17 | 273 | 0.0 | 0.0 | 0.00 | 0.00 | 0.00 | 99 | 1018.8 |
| 20260510075759 | 17 | 273 | 0.0 | 0.0 | 0.00 | 0.00 | 0.00 | 99 | 1018.8 |
| 20260510075256 | 17 | 274 | 0.0 | 0.0 | 0.00 | 0.00 | 0.00 | 99 | 1019.0 |
| 20260510074753 | 17 | 274 | 0.0 | 0.0 | 0.00 | 0.00 | 0.00 | 99 | 1019.0 |
| 20260510074250 | 17 | 273 | 0.0 | 0.0 | 0.00 | 0.00 | 0.00 | 99 | 1019.0 |
| 20260510073746 | 17 | 274 | 0.0 | 0.0 | 0.00 | 0.00 | 0.00 | 99 | 1019.0 |
| 20260510073242 | 17 | 274 | 0.0 | 0.0 | 0.00 | 0.00 | 0.00 | 99 | 1018.8 |
| 20260510072737 | 17 | 274 | 0.0 | 0.0 | 0.00 | 0.00 | 0.00 | 99 | 1018.9 |
| 20260510072234 | 17 | 274 | 0.0 | 0.0 | 0.00 | 0.00 | 0.00 | 99 | 1019.0 |
| 20260510071731 | 17 | 274 | 0.0 | 0.0 | 0.00 | 0.00 | 0.00 | 99 | 1018.9 |
| 20260510071228 | 17 | 274 | 0.0 | 0.0 | 0.00 | 0.00 | 0.00 | 99 | 1018.9 |
| 20260510070726 | 17 | 274 | 0.0 | 0.0 | 0.00 | 0.00 | 0.00 | 99 | 1019.2 |
| 20260510070223 | 17 | 274 | 0.0 | 0.0 | 0.00 | 0.00 | 0.00 | 99 | 1019.0 |
| 20260510065718 | 17 | 274 | 0.0 | 0.0 | 0.00 | 0.00 | 0.00 | 99 | 1019.0 |
| 20260510065214 | 17 | 274 | 0.0 | 0.0 | 0.00 | 0.00 | 0.00 | 99 | 1019.3 |
| 20260510064711 | 17 | 274 | 0.0 | 0.0 | 0.00 | 0.00 | 0.00 | 99 | 1019.1 |
| 20260510064209 | 17 | 274 | 0.0 | 0.0 | 0.00 | 0.00 | 0.00 | 99 | 1019.3 |
| 20260510063705 | 17 | 274 | 0.0 | 0.0 | 0.00 | 0.00 | 0.00 | 99 | 1019.1 |
| 20260510063201 | 17 | 274 | 0.0 | 0.0 | 0.00 | 0.00 | 0.00 | 99 | 1019.4 |
| 20260510062658 | 17 | 274 | 0.0 | 0.0 | 0.00 | 0.00 | 0.00 | 99 | 1019.5 |
| 20260510062154 | 16 | 274 | 0.0 | 0.0 | 0.00 | 0.00 | 0.00 | 99 | 1019.4 |
| 20260510061649 | 16 | 274 | 0.0 | 0.0 | 0.00 | 0.00 | 0.00 | 99 | 1019.6 |
| 20260510061147 | 16 | 274 | 0.0 | 0.0 | 0.00 | 0.00 | 0.00 | 99 | 1019.5 |
| 20260510060643 | 16 | 274 | 0.0 | 0.0 | 0.00 | 0.00 | 0.00 | 99 | 1019.6 |
| 20260510060140 | 16 | 274 | 0.0 | 0.0 | 0.00 | 0.00 | 0.00 | 99 | 1019.3 |
| 20260510055636 | 16 | 274 | 0.0 | 0.0 | 0.00 | 0.00 | 0.00 | 99 | 1019.3 |
| 20260510055134 | 16 | 274 | 0.0 | 0.0 | 0.00 | 0.00 | 0.00 | 99 | 1019.4 |
| 20260510054629 | 16 | 274 | 0.0 | 0.0 | 0.00 | 0.00 | 0.00 | 99 | 1019.3 |
| 20260510054125 | 16 | 273 | 0.0 | 0.0 | 0.00 | 0.00 | 0.00 | 99 | 1019.6 |
| 20260510053624 | 16 | 273 | 0.0 | 0.0 | 0.00 | 0.00 | 0.00 | 99 | 1019.5 |
| 20260510053121 | 16 | 273 | 0.0 | 0.0 | 0.00 | 0.00 | 0.00 | 99 | 1019.6 |
| 20260510052617 | 16 | 273 | 0.0 | 0.0 | 0.00 | 0.00 | 0.00 | 99 | 1019.8 |
| 20260510052114 | 16 | 273 | 0.0 | 0.0 | 0.00 | 0.00 | 0.00 | 99 | 1019.5 |
| 20260510051609 | 16 | 273 | 0.0 | 0.0 | 0.00 | 0.00 | 0.00 | 99 | 1019.5 |
| 20260510051107 | 16 | 273 | 0.0 | 0.0 | 0.00 | 0.00 | 0.00 | 99 | 1019.4 |
| 20260510050604 | 16 | 273 | 0.0 | 0.0 | 0.00 | 0.00 | 0.00 | 99 | 1019.7 |
| 20260510050100 | 16 | 273 | 0.0 | 0.0 | 0.00 | 0.00 | 0.00 | 99 | 1019.4 |
| 20260510045558 | 17 | 273 | 0.0 | 0.0 | 0.00 | 0.15 | 0.15 | 99 | 1019.9 |
| 20260510045053 | 17 | 273 | 0.0 | 0.0 | 0.00 | 0.15 | 0.15 | 99 | 1019.6 |
| 20260510044550 | 17 | 273 | 0.0 | 0.0 | 0.00 | 0.15 | 0.15 | 99 | 1019.6 |
| 20260510044048 | 17 | 273 | 0.0 | 0.0 | 0.00 | 0.15 | 0.15 | 99 | 1019.8 |
| 20260510043543 | 17 | 273 | 0.0 | 0.0 | 0.00 | 0.15 | 0.15 | 99 | 1019.8 |
| 20260510043039 | 17 | 273 | 0.0 | 0.0 | 0.00 | 0.15 | 0.15 | 99 | 1019.6 |
| 20260510042533 | 17 | 273 | 0.0 | 0.0 | 0.00 | 0.15 | 0.15 | 99 | 1019.7 |
| 20260510042028 | 17 | 273 | 0.0 | 0.0 | 0.00 | 0.15 | 0.15 | 99 | 1019.7 |
| 20260510041526 | 17 | 273 | 0.0 | 0.0 | 0.00 | 0.15 | 0.15 | 99 | 1019.8 |
| 20260510041023 | 17 | 273 | 0.0 | 0.0 | 0.00 | 0.15 | 0.15 | 99 | 1019.9 |
| 20260510040519 | 17 | 273 | 0.0 | 0.0 | 0.00 | 0.15 | 0.15 | 99 | 1019.8 |
| 20260510040015 | 17 | 273 | 0.0 | 0.0 | 0.00 | 0.15 | 0.15 | 99 | 1019.7 |
| 20260510035512 | 17 | 273 | 0.0 | 0.0 | 0.00 | 0.15 | 0.15 | 99 | 1019.6 |
| 20260510035011 | 17 | 273 | 0.0 | 0.0 | 0.00 | 0.15 | 0.15 | 99 | 1019.8 |
| 20260510034510 | 17 | 274 | 0.0 | 0.0 | 0.00 | 0.15 | 0.15 | 99 | 1019.8 |
| 20260510034006 | 17 | 274 | 0.0 | 0.0 | 0.00 | 0.15 | 0.15 | 99 | 1019.7 |
| 20260510033502 | 17 | 274 | 0.0 | 0.0 | 0.00 | 0.15 | 0.15 | 99 | 1019.7 |
| 20260510033001 | 18 | 274 | 0.0 | 0.0 | 0.00 | 0.15 | 0.15 | 99 | 1019.8 |
| 20260510032457 | 18 | 273 | 0.0 | 0.0 | 0.00 | 0.15 | 0.15 | 99 | 1020.0 |
| 20260510031957 | 18 | 274 | 0.0 | 0.0 | 0.00 | 0.15 | 0.15 | 99 | 1020.0 |
| 20260510031452 | 18 | 273 | 0.0 | 0.0 | 0.00 | 0.15 | 0.15 | 99 | 1019.8 |
| 20260510030949 | 18 | 274 | 0.0 | 0.0 | 0.00 | 0.15 | 0.15 | 99 | 1020.0 |
| 20260510030444 | 18 | 274 | 0.0 | 0.0 | 0.00 | 0.15 | 0.15 | 99 | 1019.8 |
| 20260510025942 | 18 | 274 | 0.0 | 0.0 | 0.00 | 0.15 | 0.15 | 99 | 1019.6 |
| 20260510025439 | 18 | 274 | 0.0 | 0.0 | 0.00 | 0.15 | 0.15 | 99 | 1019.7 |
| 20260510024936 | 18 | 273 | 0.0 | 0.0 | 0.00 | 0.15 | 0.15 | 99 | 1019.8 |
| 20260510024433 | 18 | 273 | 0.0 | 0.0 | 0.00 | 0.15 | 0.15 | 98 | 1019.7 |
| 20260510023928 | 18 | 273 | 0.0 | 0.0 | 0.00 | 0.15 | 0.15 | 98 | 1019.7 |
| 20260510023425 | 18 | 273 | 0.0 | 0.0 | 0.00 | 0.15 | 0.15 | 98 | 1019.6 |
| 20260510022922 | 19 | 316 | 0.0 | 0.0 | 0.00 | 0.15 | 0.15 | 98 | 1019.5 |
| 20260510022421 | 19 | 316 | 0.0 | 0.0 | 0.00 | 0.15 | 0.15 | 97 | 1019.5 |
| 20260510021920 | 19 | 317 | 0.0 | 1.6 | 0.00 | 0.15 | 0.15 | 97 | 1019.3 |
| 20260510021419 | 19 | 317 | 0.0 | 0.0 | 0.00 | 0.15 | 0.15 | 97 | 1019.2 |
| 20260510020915 | 19 | 318 | 0.0 | 0.0 | 0.00 | 0.15 | 0.15 | 97 | 1018.9 |
| 20260510020410 | 19 | 318 | 0.0 | 0.0 | 0.00 | 0.15 | 0.15 | 97 | 1019.1 |
| 20260510015906 | 19 | 319 | 0.0 | 0.0 | 0.00 | 0.15 | 0.15 | 96 | 1019.1 |
| 20260510015402 | 19 | 284 | 0.0 | 1.6 | 0.00 | 0.15 | 0.15 | 96 | 1019.1 |
| 20260510014857 | 19 | 283 | 0.0 | 0.0 | 0.00 | 0.15 | 0.15 | 96 | 1019.0 |
| 20260510014355 | 19 | 284 | 0.0 | 0.0 | 0.00 | 0.15 | 0.15 | 96 | 1018.8 |
| 20260510013851 | 19 | 283 | 1.6 | 1.6 | 0.00 | 0.15 | 0.15 | 96 | 1018.8 |
| 20260510013346 | 19 | 284 | 0.0 | 1.6 | 0.00 | 0.15 | 0.15 | 95 | 1018.4 |
| 20260510012841 | 19 | 283 | 0.0 | 0.0 | 0.00 | 0.15 | 0.15 | 95 | 1018.4 |
| 20260510012341 | 20 | 283 | 0.0 | 0.0 | 0.00 | 0.15 | 0.15 | 95 | 1018.7 |
| 20260510011837 | 20 | 284 | 0.0 | 0.0 | 0.00 | 0.15 | 0.15 | 94 | 1018.3 |
| 20260510011332 | 20 | 284 | 0.0 | 0.0 | 0.00 | 0.15 | 0.15 | 94 | 1018.2 |
| 20260510010829 | 20 | 284 | 0.0 | 0.0 | 0.00 | 0.15 | 0.15 | 94 | 1018.4 |
| 20260510010326 | 20 | 284 | 0.0 | 0.0 | 0.00 | 0.15 | 0.15 | 94 | 1018.1 |
| 20260510005822 | 20 | 284 | 0.0 | 0.0 | 0.00 | 0.15 | 0.15 | 94 | 1018.0 |
| 20260510005319 | 20 | 283 | 0.0 | 0.0 | 0.00 | 0.15 | 0.15 | 94 | 1017.9 |
| 20260510004817 | 20 | 284 | 0.0 | 0.0 | 0.00 | 0.15 | 0.15 | 93 | 1017.8 |
| 20260510004314 | 20 | 283 | 1.6 | 1.6 | 0.00 | 0.15 | 0.15 | 93 | 1017.9 |
| 20260510003812 | 20 | 284 | 0.0 | 0.0 | 0.00 | 0.15 | 0.15 | 93 | 1017.8 |
| 20260510003308 | 20 | 284 | 0.0 | 0.0 | 0.00 | 0.15 | 0.15 | 92 | 1017.9 |
| 20260510002807 | 20 | 284 | 0.0 | 0.0 | 0.00 | 0.15 | 0.15 | 92 | 1018.0 |
| 20260510002307 | 20 | 284 | 0.0 | 0.0 | 0.00 | 0.15 | 0.15 | 92 | 1018.2 |
| 20260510001801 | 20 | 284 | 0.0 | 0.0 | 0.00 | 0.15 | 0.15 | 92 | 1017.9 |
| 20260510001259 | 20 | 284 | 0.0 | 0.0 | 0.00 | 0.15 | 0.15 | 92 | 1017.9 |
| 20260510000754 | 20 | 284 | 0.0 | 0.0 | 0.00 | 0.15 | 0.15 | 92 | 1018.0 |
| 20260510000253 | 20 | 284 | 0.0 | 0.0 | 0.00 | 0.15 | 0.15 | 92 | 1017.6 |
| 20260509235749 | 20 | 284 | 0.0 | 0.0 | 0.00 | 0.15 | 0.15 | 91 | 1017.4 |
| 20260509235246 | 20 | 283 | 0.0 | 0.0 | 0.00 | 0.15 | 0.15 | 90 | 1017.4 |
| 20260509234741 | 21 | 284 | 0.0 | 0.0 | 0.00 | 0.15 | 0.15 | 91 | 1017.3 |
| 20260509234239 | 21 | 283 | 0.0 | 0.0 | 0.00 | 0.15 | 0.15 | 90 | 1017.2 |
| 20260509233737 | 21 | 284 | 0.0 | 0.0 | 0.00 | 0.15 | 0.15 | 90 | 1017.3 |
| 20260509233234 | 21 | 284 | 0.0 | 0.0 | 0.00 | 0.15 | 0.15 | 90 | 1017.1 |
| 20260509232730 | 21 | 284 | 0.0 | 0.0 | 0.00 | 0.15 | 0.15 | 89 | 1017.1 |
| 20260509232227 | 21 | 284 | 0.0 | 0.0 | 0.00 | 0.15 | 0.15 | 89 | 1016.9 |
| 20260509231724 | 21 | 284 | 0.0 | 0.0 | 0.00 | 0.15 | 0.15 | 89 | 1017.1 |
| 20260509231221 | 21 | 283 | 0.0 | 0.0 | 0.00 | 0.15 | 0.15 | 89 | 1017.3 |
| 20260509230719 | 21 | 284 | 0.0 | 0.0 | 0.00 | 0.15 | 0.15 | 88 | 1017.1 |
| 20260509230215 | 21 | 284 | 0.0 | 0.0 | 0.00 | 0.15 | 0.15 | 87 | 1017.0 |
| 20260509225710 | 21 | 284 | 0.0 | 0.0 | 0.00 | 0.15 | 0.15 | 87 | 1017.0 |
| 20260509225206 | 21 | 283 | 0.0 | 0.0 | 0.00 | 0.15 | 0.15 | 87 | 1016.8 |
| 20260509224657 | 22 | 284 | 0.0 | 0.0 | 0.00 | 0.15 | 0.15 | 85 | 1016.7 |
| 20260509224154 | 22 | 284 | 0.0 | 0.0 | 0.00 | 0.15 | 0.15 | 84 | 1016.7 |
| 20260509223650 | 22 | 284 | 0.0 | 0.0 | 0.00 | 0.15 | 0.15 | 83 | 1016.9 |
| 20260509223148 | 22 | 284 | 0.0 | 0.0 | 0.00 | 0.15 | 0.15 | 81 | 1016.7 |
| 20260509222645 | 22 | 284 | 0.0 | 1.6 | 0.00 | 0.15 | 0.15 | 80 | 1016.7 |
| 20260509222140 | 22 | 284 | 0.0 | 1.6 | 0.00 | 0.15 | 0.15 | 80 | 1016.6 |
| 20260509221636 | 22 | 284 | 0.0 | 0.0 | 0.00 | 0.15 | 0.15 | 81 | 1016.6 |
| 20260509221132 | 22 | 284 | 0.0 | 0.0 | 0.00 | 0.15 | 0.15 | 79 | 1016.5 |
| 20260509220628 | 22 | 299 | 0.0 | 0.0 | 0.00 | 0.15 | 0.15 | 82 | 1016.6 |
| 20260509220124 | 22 | 301 | 0.0 | 0.0 | 0.00 | 0.15 | 0.15 | 81 | 1016.7 |
| 20260509215620 | 22 | 301 | 0.0 | 0.0 | 0.00 | 0.15 | 0.15 | 80 | 1016.7 |
| 20260509215117 | 22 | 301 | 0.0 | 0.0 | 0.00 | 0.15 | 0.15 | 78 | 1016.6 |
| 20260509214614 | 22 | 302 | 0.0 | 0.0 | 0.00 | 0.15 | 0.15 | 80 | 1016.5 |